Regional Weather Roundup
Issued by NWS Charleston, SC

Current Version | Previous Version | Graphics & Text | Print | Product List | Glossary On
Versions: 1 2 3 4 5 6 7 8 9 10 11 12 13 14 15 16 17 18 19 20 21 22 23 24 25 26 27 28 29 30 31 32 33 34 35 36 37 38 39 40 41 42 43 44 45 46 47 48 49 50
000
ASUS42 KCHS 282325
RWRCHS

REGIONAL WEATHER ROUNDUP
NATIONAL WEATHER SERVICE CHARLESTON SC
700 PM EDT THU AUG 28 2014

NOTE: "FAIR" INDICATES FEW OR NO CLOUDS BELOW 12,000 FEET WITH NO
SIGNIFICANT WEATHER AND/OR OBSTRUCTIONS TO VISIBILITY.

NOT ALL STATIONS ARE QUALITY CONTROLLED BY THE NATIONAL
WEATHER SERVICE. USE DATA WITH CAUTION...ESPECIALLY
DEWPOINT OBSERVATIONS.

SCZ027-030-031-034>040-042>050-290000-
...SOUTH CAROLINA...

CITY           SKY/WX    TMP DP  RH WIND       PRES   REMARKS
N CHARLESTON   PTCLDY    85  65  51 S9        29.99S
WATERFRONT PRK   N/A     82 N/A N/A S9          N/A
FORT JOHNSON   NOT AVBL
MOUNT PLEASANT FAIR      82  68  61 S6        29.99S
JOHNS ISLAND   CLEAR     82  66  57 CALM      29.99S
PINOPOLIS        N/A     99  63  30 CALM      29.91R HX 100
MONCKS CORNER    N/A     86  72  62 S5        29.98S HX  92
SUMMERVILLE    FAIR      86  68  54 S5        29.99S
BEAUFORT MCAS  SUNNY     85  65  51 SW6       29.99S
BEAUFORT ARPT  FAIR      81  68  65 S5        29.98F
HILTON HEAD IS SUNNY     82  70  65 S3        30.00F
GEORGETOWN     NOT AVBL
WALTERBORO     CLEAR     86  55  35 S9        29.99R
ORANGEBURG     SUNNY     89  56  32 S7        29.97S
BARNWELL       FAIR      90  52  27 SW6       29.98R
AIKEN          FAIR      90  61  37 S8        30.01R
MANNING        FAIR      86  70  58 CALM      29.97F HX  90
KINGSTREE      NOT AVBL
COLUMBIA       MOSUNNY   93  56  28 E8        29.95S HX  91
SUMTER         SUNNY     92  59  32 SE7       29.96R HX  92
FLORENCE       CLEAR     90  63  40 S7        29.96S HX  91
MYRTLE BEACH   CLEAR     84  66  54 S14       29.99R
N MYRTLE BEACH CLEAR     83  68  60 SW12      29.99R

$$

GAZ063-065-086>088-099>101-113>116-118-119-134-136>141-150-290000-
...GEORGIA...

CITY           SKY/WX    TMP DP  RH WIND       PRES   REMARKS
SAVANNAH ARPT  MOSUNNY   86  63  45 S10       29.99S
HUNTER AAF     SUNNY     83  68  59 SE8       29.97F
FORT STEWART   SUNNY     87  64  46 SE8       29.97F
STATESBORO     NOT AVBL
SYLVANIA       CLEAR     87  66  48 CALM      29.98S
CLAXTON        NOT AVBL
THOMSON        SUNNY     93  62  35 CALM      30.01S HX  93
AUGUSTA-BUSH   SUNNY     90  54  29 S6        29.96S
AUGUSTA-DANIEL SUNNY     93  51  23 S9        29.98S HX  90
SWAINSBORO     FAIR      93  59  31 SE6       29.97S HX  92
VIDALIA          N/A     90  59  35 SE3       29.97S
ALMA           SUNNY     89  59  36 S3        29.97F
WAYCROSS       SUNNY     91  65  41 SE6       29.96S HX  93
JESUP            N/A     88  72  58 SE7       29.98S HX  94
BRUNSWICK      SUNNY     82  68  61 E6        30.00S
SAINT SIMONS   SUNNY     82  71  69 E6        29.99S

$$

SCZ027-028-034-036>038-045-046-048>050-GAZ119-141-290000-
...LAKE AND SUPPLEMENTAL COASTAL OBSERVATIONS...

STATION/POSITION TIME  TEMP    WIND        PRES    WAVE   SWELL
                       AIR SEA DIR/SP/G            HT/PER HT/PER/DIR
                 (UTC) (F)     (DEG/KT/KT) (MB)    (FT/S) (FT/S/D)
UPR LAKE MARION  NOT AVBL
WINYAH BAY       2200   85     180/ 10     1015.0S
LAKE MURRAY      2200   93     190/  2/  2 1013.5F
ACE BASIN NERRS  2200   85     160/  3     1016.0S
FORT PULASKI     2300   83     150/  5/  7 1015.8F
SAPELO ISLAND    2300   83      90/  5     1016.0F

$$

ANZ835-935-AMZ111-154-330-350-352-354-374-450-454-472-290000-
...C-MAN AND BUOY OBSERVATIONS...

STATION/POSITION TIME  TEMP    WIND        PRES    WAVE   SWELL
                       AIR SEA DIR/SP/G            HT/PER HT/PER/DIR
                 (UTC) (F)     (DEG/KT/KT) (MB)    (FT/S) (FT/S/D)
FOLLY BEACH CMAN 2300   82     200/  8/ 11 1016.1F
BUOY 41004       2300   81 84  220/  6/  8 1015.7F   4/10   5/10
BUOY 41008       2300   82 85  110/  8/ 10 1015.8F   3/ 9   3/ 90/ 9
5E ST. MARYS GA  2300      85                N/A     3/ 8   2/ 80/11
FRYING PAN BUOY  NOT AVBL
BUOY 41025       2300   82     230/ 12/ 14 1014.6R   5/10   5/130/10
CAPE LOOKOUT NC  2300   81     230/  6/  8 1014.9R
BUOY 41002       2159   81 83  250/  4/  6 1017.1S   5/ 8   5/ 90/ 8
BUOY 41010       2300   83 85   80/  6/  8 1015.6F   6/10   5/ 40/10
BUOY 41012       NOT AVBL
ST AUGUSTINE FL  2300   82      80/  7/  8 1015.9F
CAPERS NEARSHORE 2200   83     220/ 10/ 12   N/A
FRIPP NEARSHORE  NOT AVBL


$$



USA.gov is the U.S. government's official web portal to all federal, state and local government web resources and services.